Location: Kerb�bon
(47.7970°N, 3.3487°W)
Time: 10:13:49
(UTC+00:00)

Thor Agena Rocket - Pass Details

Date: 12 May 2021
Orbit: 760 x 807 km, 99.0° (Epoch: 20 June)

Event Time Altitude Azimuth Distance (km) Brightness Sun altitude
Rises 23:34:05 0° 20° (NNE) 3,307 7.8 -23.3°
Reaches altitude 10° 23:36:32 10° 27° (NNE) 2,379 6.8 -23.4°
Maximum altitude 23:41:32 43° 99° (E) 1,116 4.1 -23.5°
Enters shadow 23:42:05 42° 116° (ESE) 1,140 4.1 -23.5°
